Theta_e
286 285 285 285 285 286 285 285 285 285 285 285 286 286 286 287 287 287 287 287 287 286 286 287 287 288 289 289 291 292 294 296 297 296 298 299 300 300 302 302 304 305 304 302 305 310 313 315 318 321 323 322
286 286 286 286 286 286 286 285 285 284 284 285 285 285 285 286 286 286 286 286 286 286 286 286 286 287 288 288 289 291 292 294 295 295 296 297 298 299 301 302 303 304 304 302 302 305 309 312 314 317 321 320
286 286 286 286 286 286 286 285 284 284 284 284 284 285 285 285 285 285 285 286 286 285 285 285 286 286 287 288 288 288 291 292 293 294 295 296 297 298 300 302 302 303 303 303 301 301 305 309 311 313 317 318
286 286 286 286 286 286 286 285 284 284 284 285 285 285 284 284 285 285 285 285 285 285 285 285 285 285 285 287 287 287 288 291 292 293 294 294 295 296 298 300 301 302 302 303 302 300 301 305 308 310 313 316
285 285 286 286 286 286 285 285 284 284 284 285 285 285 285 285 284 285 285 284 285 284 285 284 284 284 284 285 287 287 287 288 290 292 293 293 294 295 297 298 300 301 302 302 302 301 301 302 305 308 310 312
285 285 285 286 286 286 285 285 284 284 284 285 285 285 285 285 284 284 284 284 284 284 284 284 283 284 284 284 286 287 286 287 288 290 291 292 293 294 295 296 298 300 301 301 302 302 301 301 302 305 307 309
284 285 285 285 286 285 285 285 284 284 284 284 285 285 284 284 284 284 284 284 284 283 283 283 283 283 283 283 284 286 286 286 286 287 289 291 292 293 294 295 296 298 299 300 300 301 301 301 301 302 304 307
284 285 285 285 285 285 285 284 284 284 284 284 284 284 284 284 284 283 283 283 283 282 282 282 282 282 283 283 283 284 285 285 285 286 287 289 290 291 293 294 295 296 297 298 299 299 300 301 302 302 302 304
284 285 285 284 284 284 284 284 283 284 284 284 284 284 284 284 283 283 283 282 282 282 282 282 282 282 282 282 283 283 284 284 285 285 285 287 288 290 291 293 294 295 296 297 297 298 299 300 301 302 302 302
284 284 284 284 284 283 283 283 283 283 283 283 284 284 283 283 283 283 282 282 282 282 281 281 281 281 281 282 282 282 282 283 284 284 284 285 286 288 290 291 292 293 294 295 296 297 297 298 300 301 301 302
284 284 284 284 283 283 283 283 283 284 284 284 284 284 284 284 283 283 282 282 282 281 281 281 281 281 281 281 281 282 282 282 282 283 283 283 284 286 288 289 290 292 293 294 294 295 296 297 298 299 300 301
283 284 284 284 283 283 283 283 283 284 284 284 284 284 284 284 283 283 282 282 281 281 281 281 281 281 281 280 281 281 282 281 281 282 282 282 283 284 285 287 288 290 291 292 293 294 295 296 296 298 299 300
283 283 284 284 284 283 283 283 284 284 284 284 284 283 283 283 283 283 283 282 281 281 281 281 281 281 280 280 280 281 281 281 281 281 281 282 282 282 283 285 286 288 289 291 292 293 294 295 295 296 297 299
284 283 284 283 283 283 283 284 284 284 284 283 283 283 283 283 283 283 283 281 280 280 280 280 280 280 280 280 280 280 281 281 281 280 281 281 282 282 282 283 284 285 287 289 290 292 293 294 294 295 296 297
283 283 283 283 283 283 283 284 284 284 283 283 283 283 282 282 282 283 282 281 280 280 280 280 280 280 280 280 280 280 280 281 281 281 280 280 281 281 281 282 282 283 284 286 288 290 291 293 294 294 295 295
283 283 283 283 283 283 283 283 284 284 283 283 283 282 282 282 282 282 282 281 280 279 279 279 280 280 280 280 280 280 280 280 281 281 280 280 280 281 281 281 282 282 283 284 285 287 289 291 293 293 294 295
283 283 283 283 283 283 283 283 283 283 283 283 283 282 282 282 281 281 281 281 280 279 279 279 279 279 279 279 279 279 280 280 280 280 280 280 280 280 281 281 281 282 282 282 283 285 287 289 291 292 293 294
283 283 283 283 283 283 283 282 283 283 283 283 283 283 282 282 281 281 281 280 280 279 279 279 279 279 279 279 279 279 279 279 280 280 280 280 280 280 280 281 281 281 282 282 283 283 285 286 288 291 292 293
284 283 283 283 283 283 282 282 282 282 282 282 282 282 282 282 281 280 280 280 280 279 279 279 279 279 279 279 279 279 279 279 279 280 280 280 280 280 280 280 281 281 281 281 282 283 284 285 286 288 290 292
284 283 283 283 283 283 282 282 282 282 282 282 282 282 282 282 281 280 280 280 280 279 279 279 279 278 278 278 278 279 279 279 279 279 280 280 280 280 280 280 280 280 280 281 281 282 283 284 285 286 288 290
284 283 282 283 283 283 282 282 282 282 281 281 282 282 282 282 281 280 280 280 279 279 279 278 278 278 278 278 278 278 278 278 279 279 279 280 280 280 280 280 280 280 280 280 281 282 282 283 284 285 286 288
284 283 282 283 283 283 282 282 281 281 281 281 281 282 282 281 281 280 280 279 279 279 278 278 278 277 278 278 278 278 278 278 279 279 279 279 280 280 280 280 279 279 279 279 280 281 282 283 284 284 285 286
284 283 282 282 283 283 282 282 281 281 281 281 281 281 281 281 281 280 280 279 279 279 278 278 277 277 277 277 277 277 277 278 278 279 279 279 279 280 280 279 279 278 279 279 279 281 282 283 283 284 284 285
284 283 282 282 283 283 283 282 281 281 281 281 281 281 281 281 280 280 280 279 279 279 278 278 277 277 277 276 276 276 277 277 277 278 278 279 279 279 279 279 279 278 278 279 279 280 281 282 283 283 284 284
284 283 282 282 282 283 282 282 281 281 281 281 281 281 281 281 280 280 280 279 279 279 278 278 278 277 277 276 276 276 276 276 277 277 278 278 278 278 278 279 279 278 278 278 278 279 280 281 282 283 284 284
285 284 282 282 282 282 282 282 281 281 281 281 280 280 280 280 280 279 279 279 279 279 278 278 278 278 277 276 276 276 276 276 276 276 277 277 278 278 278 278 278 278 278 278 277 278 279 280 281 283 284 284
285 284 282 282 282 282 282 282 281 281 281 281 281 280 280 280 279 279 279 279 279 279 279 278 278 278 277 277 276 276 276 276 276 276 277 277 278 278 278 278 278 278 278 277 277 277 278 279 280 281 282 283
285 284 283 282 282 282 282 282 281 281 281 281 280 280 280 280 279 279 279 279 279 279 279 278 278 278 278 277 277 276 276 276 276 276 277 277 278 278 278 279 279 278 278 277 277 277 277 278 278 279 280 282
285 284 283 282 282 282 282 282 281 281 280 280 280 280 280 279 279 279 279 279 279 279 279 279 278 279 278 278 277 277 276 276 276 276 277 278 278 278 278 279 279 278 278 277 277 276 276 277 278 278 279 280
285 284 283 282 281 282 282 282 282 281 280 280 280 280 280 280 279 279 279 279 279 279 279 279 279 279 279 278 278 277 277 277 277 277 277 278 278 278 278 278 279 279 278 277 277 276 276 277 277 277 277 277
286 285 284 282 281 281 281 282 282 281 280 280 280 280 280 280 279 279 279 279 279 279 279 279 279 279 279 279 279 278 278 278 277 277 277 277 277 277 278 278 278 278 278 278 277 276 276 276 275 275 275 275
Wind_Speed
21 21 21 22 23 24 25 24 25 25 26 27 28 30 31 32 34 34 34 34 32 30 30 30 29 26 28 29 27 27 26 26 27 29 30 32 32 33 34 35 36 34 30 27 19 12 8 7 12 22 31 32
21 21 22 22 23 23 23 23 22 23 24 26 27 28 30 31 32 33 33 34 33 32 31 30 30 27 26 29 29 26 26 27 28 30 31 31 33 34 36 37 36 34 32 30 25 17 10 8 7 16 28 32
23 23 23 23 23 23 22 21 21 22 23 24 26 27 28 30 31 32 33 34 35 33 32 30 31 30 26 27 30 29 28 29 29 29 31 31 33 35 37 38 35 33 32 31 27 22 14 10 8 10 23 30
25 25 25 24 23 22 21 20 20 21 22 23 25 26 28 29 30 32 32 34 35 35 34 32 30 30 28 26 29 32 31 30 30 29 30 32 33 35 36 37 36 34 32 31 29 25 18 12 11 7 14 25
28 27 26 24 23 21 20 20 20 21 22 23 25 26 28 29 31 31 33 33 35 36 37 35 31 30 29 27 27 33 34 31 31 31 31 32 32 34 35 35 36 35 32 31 31 29 22 15 12 8 7 16
29 28 27 24 22 20 20 20 21 22 23 24 25 27 28 30 31 32 33 34 35 36 37 37 34 30 29 28 26 30 35 33 31 32 32 32 33 33 33 34 34 35 34 32 31 30 27 20 14 10 7 8
30 29 27 25 23 21 20 20 22 23 24 25 26 28 29 30 32 33 33 34 35 35 36 36 35 32 28 27 26 28 32 34 32 31 31 31 32 32 32 33 33 34 35 33 31 30 29 25 18 13 9 7
31 29 28 26 24 22 22 21 23 24 25 27 28 29 30 32 33 34 34 33 33 33 34 35 35 34 30 26 25 28 30 32 32 31 30 30 31 31 31 32 33 33 34 34 32 31 29 27 23 17 12 8
31 30 29 28 26 25 25 24 25 26 28 29 30 31 32 33 34 34 33 31 31 30 31 32 33 33 31 26 23 26 29 29 31 31 30 29 30 30 30 30 31 32 33 34 33 32 30 27 25 22 17 12
32 30 29 28 27 26 26 27 27 28 30 31 32 34 34 35 34 33 32 30 28 28 29 30 32 32 31 27 23 24 28 29 28 29 29 28 28 29 29 29 29 30 31 32 33 32 31 29 26 24 21 17
32 30 30 29 28 28 28 29 29 30 30 31 32 33 34 35 34 34 32 30 27 26 27 29 30 31 30 28 25 23 26 29 28 27 28 27 26 27 27 28 28 28 29 30 31 31 31 30 28 25 23 22
33 31 30 30 29 29 29 30 31 31 31 31 30 31 32 33 34 34 33 30 27 26 27 28 29 30 29 28 26 24 24 28 29 27 26 26 25 25 25 26 26 27 27 28 29 30 31 30 29 27 25 23
34 32 31 31 30 30 30 31 31 31 31 30 29 29 30 32 32 33 33 31 28 26 26 27 28 28 28 27 26 25 24 26 29 27 25 25 25 24 24 24 25 26 26 27 27 28 29 30 30 29 27 25
34 33 32 31 31 32 32 32 31 31 30 30 29 29 29 30 31 32 32 31 28 26 25 26 27 27 27 26 25 25 25 25 28 29 26 24 24 24 23 23 23 24 25 26 26 27 28 29 29 29 29 27
35 34 33 33 33 33 33 33 31 31 30 30 29 29 29 29 30 30 30 29 28 26 25 25 26 26 26 26 25 24 25 25 27 29 28 26 24 24 24 23 22 23 24 25 26 26 27 28 28 29 29 28
35 35 34 34 34 35 35 33 32 31 31 31 30 28 28 27 28 28 28 27 27 25 25 25 25 26 25 25 25 24 24 25 26 29 29 28 26 25 25 24 23 22 23 24 25 26 27 27 27 28 29 28
35 35 35 35 36 36 35 34 32 31 31 31 30 28 27 26 26 27 27 26 26 25 25 25 25 25 25 24 24 24 24 24 26 28 30 30 29 27 26 26 26 24 23 23 24 25 27 27 28 28 28 28
36 36 35 36 37 37 36 34 32 31 31 31 29 27 26 25 26 26 27 26 26 26 26 26 25 25 25 25 24 24 24 24 26 28 30 32 32 30 29 28 28 27 26 24 24 24 25 27 28 28 28 28
36 36 36 37 37 37 36 34 32 31 31 30 28 27 26 25 25 25 26 26 26 26 27 27 27 26 26 26 25 25 25 25 25 27 30 32 33 33 32 31 30 30 30 28 26 24 25 26 27 28 28 28
36 37 36 37 37 37 36 34 32 31 30 29 28 26 25 25 24 25 25 25 26 26 28 29 29 29 28 28 27 26 26 25 25 27 29 31 33 35 35 35 34 34 34 32 29 26 25 25 26 27 28 28
36 37 37 37 37 37 36 33 32 31 30 28 27 26 25 24 24 24 24 24 25 26 27 29 31 31 31 31 30 29 28 27 27 27 28 30 32 34 36 38 37 37 36 35 32 28 26 25 25 26 27 27
36 36 36 36 37 37 36 33 32 31 29 28 27 25 24 23 23 23 23 23 24 25 27 28 31 32 32 32 32 31 30 29 29 28 29 30 32 33 36 38 39 38 37 35 33 31 27 25 25 25 25 25
36 36 36 36 36 37 35 33 31 30 29 27 26 24 23 22 22 22 22 22 23 24 26 27 29 30 31 32 33 32 32 31 31 30 30 31 32 32 34 37 37 35 33 32 32 30 27 25 24 23 22 22
36 36 36 36 36 37 35 34 32 30 29 27 26 25 23 22 21 21 21 21 22 23 24 25 26 28 29 31 32 32 32 32 32 32 32 32 32 32 32 32 31 29 27 28 29 28 25 22 21 20 19 19
36 36 36 37 37 37 36 35 33 31 29 27 26 25 23 22 21 21 21 21 21 22 22 23 24 25 26 28 29 30 31 31 31 31 32 32 32 30 28 25 24 24 24 24 25 27 25 20 14 12 12 14
37 36 36 37 37 37 36 35 34 32 29 27 26 25 24 22 21 21 21 20 20 21 21 21 22 22 23 24 25 27 28 28 28 28 29 30 29 25 21 19 19 21 22 22 24 25 23 18 10 5 6 8
37 36 36 38 38 37 37 36 34 32 30 28 26 25 24 22 21 21 21 20 20 20 19 19 19 18 19 20 21 22 23 23 23 24 24 23 23 20 18 17 17 18 19 21 22 21 17 16 12 6 5 8
36 36 37 38 38 37 37 36 35 33 30 27 26 25 24 22 21 21 21 20 20 20 19 18 17 16 16 16 17 17 18 18 19 19 19 18 18 18 18 17 17 17 18 19 20 18 14 12 10 6 5 8
36 36 37 38 38 37 37 36 36 33 30 27 26 25 23 21 20 21 21 20 21 20 19 18 17 16 15 15 15 15 15 16 16 16 17 17 16 17 18 18 17 16 17 17 16 15 12 8 6 7 11 13
37 37 37 38 38 37 36 36 36 33 30 27 26 25 24 22 20 20 21 20 20 20 20 19 17 16 15 15 15 15 15 15 16 16 16 16 16 16 17 18 18 16 16 16 14 13 10 6 7 11 14 15
38 37 37 38 38 36 35 36 35 32 30 29 26 25 24 23 21 20 21 21 20 20 20 19 18 17 16 16 16 16 16 16 16 16 16 16 16 16 17 17 18 17 16 16 14 13 13 10 10 13 13 12
Wind_Direction
331 329 328 325 322 320 319 321 322 320 319 316 315 313 311 310 309 310 311 312 315 316 315 313 313 311 310 310 308 304 300 296 297 302 302 298 297 296 294 293 294 298 312 328 330 314 298 262 222 215 214 208
335 332 329 327 323 321 320 321 321 320 319 317 316 314 312 310 309 309 309 309 311 313 314 313 312 310 307 306 306 302 297 294 293 297 300 298 296 294 291 290 292 294 299 313 327 330 315 292 247 210 213 210
338 336 332 330 326 321 321 322 322 320 319 318 317 316 314 312 311 310 309 309 309 310 312 313 312 310 306 302 304 303 297 295 293 294 296 295 295 294 290 288 290 291 293 299 313 328 331 310 290 219 210 212
339 338 335 331 326 322 321 323 323 322 321 320 318 316 316 314 313 312 311 310 310 310 310 312 313 312 309 300 300 303 300 297 296 293 293 293 294 294 291 289 289 289 290 292 298 313 328 328 310 264 209 208
338 337 335 331 325 320 320 322 323 323 322 321 319 318 317 316 315 314 314 313 312 312 312 313 314 314 312 304 297 300 301 300 297 294 292 293 293 293 293 291 289 288 287 288 291 299 313 327 323 296 233 204
337 334 333 330 324 319 318 321 323 322 323 322 320 319 317 317 316 316 315 315 314 314 314 314 314 315 314 309 298 295 299 301 299 295 293 292 292 292 294 293 290 288 287 287 287 291 298 310 323 316 285 222
334 332 331 330 325 320 318 319 321 321 321 320 319 318 317 317 316 316 316 315 316 315 314 314 314 314 313 311 302 292 293 298 299 297 294 292 291 291 292 292 291 289 287 288 288 289 291 295 306 319 310 273
332 331 330 330 327 323 320 320 319 320 319 318 317 317 316 315 315 315 315 315 315 315 314 313 313 313 313 313 305 295 291 294 298 298 295 292 290 289 290 290 290 290 288 288 289 289 290 290 293 302 313 302
331 330 330 329 327 324 322 321 320 319 318 317 317 316 315 315 315 314 314 314 314 313 313 312 311 311 313 315 310 300 295 294 296 300 299 294 291 289 288 288 288 289 289 288 289 290 290 290 289 290 297 303
330 328 329 327 326 323 320 319 318 317 316 316 316 316 316 316 315 314 313 313 313 312 310 309 308 309 311 315 314 306 302 300 298 300 303 301 296 292 289 288 287 287 289 289 289 289 290 290 289 287 286 288
329 326 326 325 324 321 318 316 315 314 314 314 315 316 316 315 315 314 313 312 312 309 307 304 303 305 307 311 314 310 305 306 304 301 304 306 303 298 293 289 288 286 286 287 288 289 289 290 290 287 284 282
328 324 323 323 321 319 317 315 313 312 312 313 314 314 313 313 313 312 312 312 310 306 303 301 299 301 303 305 309 310 306 307 310 307 304 306 307 304 299 293 289 287 285 284 286 287 288 289 290 288 284 282
327 322 320 320 320 318 316 314 314 313 312 313 313 312 312 311 311 311 311 311 309 305 301 298 296 296 297 300 303 307 307 305 309 312 309 306 307 307 304 299 294 290 286 283 283 284 285 287 289 289 286 282
326 321 318 318 318 316 315 313 313 313 313 313 312 312 311 310 310 309 309 310 309 305 300 294 292 291 291 295 297 302 304 304 306 311 313 311 308 308 307 305 301 296 290 285 283 281 281 282 285 288 288 285
325 321 317 316 316 315 314 312 311 311 312 312 312 311 310 308 307 306 306 306 306 304 299 293 289 287 287 290 293 296 300 302 303 306 311 313 312 310 309 308 305 302 296 290 285 281 279 278 279 283 285 286
324 321 316 314 314 314 313 311 309 310 311 312 312 310 307 305 303 302 302 302 301 299 296 291 286 284 284 286 288 291 294 298 301 302 306 310 312 311 310 309 307 304 300 294 289 284 281 277 275 277 279 283
322 321 316 313 313 314 313 311 309 309 311 312 311 308 305 302 299 298 299 297 296 293 290 287 284 283 282 283 285 287 290 293 297 300 302 306 310 311 311 310 309 306 301 296 291 286 283 279 275 272 274 277
320 319 316 312 312 313 312 310 309 310 312 312 310 307 304 300 296 295 295 294 291 288 285 282 281 280 280 280 282 284 287 290 293 297 300 303 307 310 311 311 311 310 306 300 293 287 282 280 277 272 270 271
318 318 316 312 311 312 312 310 310 311 312 311 308 306 303 300 296 293 293 292 289 285 281 278 277 276 277 278 279 281 283 286 289 294 298 301 304 307 309 311 311 311 309 304 297 290 283 280 278 274 270 268
316 317 314 311 310 311 311 310 309 311 312 310 307 305 304 302 298 294 292 292 289 285 280 276 274 274 275 276 277 278 280 283 286 291 294 298 301 304 307 309 311 311 310 307 301 293 285 280 277 275 272 268
313 315 313 310 309 310 310 308 308 310 310 308 305 304 304 303 300 297 294 292 289 286 281 278 274 273 274 275 276 277 278 281 284 287 290 294 298 302 305 307 310 311 310 308 304 298 290 283 278 275 273 270
309 312 312 309 308 308 309 308 307 309 308 305 303 303 304 302 300 298 297 294 291 288 284 280 276 274 274 275 276 277 278 280 282 285 287 290 295 299 302 305 308 310 311 309 307 303 297 289 282 277 274 271
306 310 310 308 306 307 308 306 305 306 306 303 301 302 303 302 301 300 300 298 294 291 286 282 278 276 276 276 276 277 278 279 281 283 285 288 292 296 301 305 307 310 310 309 309 308 304 297 289 283 279 274
304 308 309 307 305 306 307 305 303 305 305 303 301 302 303 303 303 302 302 301 298 294 289 286 283 280 278 277 277 278 279 280 281 282 284 287 291 296 301 304 307 309 310 310 311 311 310 305 299 292 283 275
302 306 308 305 303 304 305 304 303 304 305 304 301 302 302 302 302 302 303 303 301 297 292 289 288 286 283 280 280 280 281 281 282 283 285 289 293 298 302 305 308 311 314 315 316 317 315 315 312 300 280 264
299 304 306 304 301 302 303 303 302 302 303 303 299 299 299 299 299 300 301 302 301 299 296 293 292 291 288 286 285 284 285 285 285 286 288 292 296 301 305 309 312 315 319 321 324 325 323 327 333 306 259 241
298 302 304 302 300 300 302 303 302 300 301 301 297 295 295 296 296 297 298 300 299 299 298 297 297 297 294 293 292 292 291 290 290 290 293 296 300 306 310 314 316 320 324 324 329 334 332 333 335 318 262 227
296 299 301 301 299 298 300 302 301 300 300 300 295 291 290 292 292 293 294 296 297 297 299 299 301 302 301 302 301 300 298 297 296 296 298 301 306 310 313 316 318 322 325 328 335 340 337 330 332 343 309 261
292 295 299 299 297 297 298 300 301 301 301 298 292 288 286 286 286 287 289 291 292 294 296 297 300 302 304 305 304 303 301 301 301 300 302 306 310 312 313 315 318 322 323 327 335 337 339 337 334 338 321 305
288 292 297 297 296 295 296 298 299 301 301 296 290 285 283 281 280 281 282 285 286 288 290 292 295 298 300 302 302 301 301 301 301 302 304 308 310 311 312 312 314 318 318 321 327 326 328 322 299 304 313 319
285 290 294 295 294 292 293 295 298 300 299 295 289 283 279 276 274 275 276 278 279 282 284 287 289 292 294 296 298 298 299 299 299 300 302 305 307 307 308 309 309 311 313 316 320 316 313 302 287 292 302 314